Regional Weather Roundup
Issued by NWS

Home | Current Version | Previous Version | Text Only | Print | Product List | Glossary On
Versions: 1 2 3 4 5 6 7 8 9 10 11 12 13 14 15 16 17 18 19 20 21 22 23 24 25 26 27 28 29 30 31 32 33 34 35 36 37 38 39 40 41 42 43 44 45 46 47 48 49 50
000
ASUS44 KFWD 301903
RWRTX
NORTH TEXAS HOURLY WEATHER ROUNDUP
NATIONAL WEATHER SERVICE FORT WORTH TX
200 PM CDT SAT JUL 30 2016

NOTE: "FAIR" INDICATES FEW OR NO CLOUDS BELOW 12,000 FEET WITH NO
SIGNIFICANT WEATHER AND/OR OBSTRUCTIONS TO VISIBILITY.

TXZ118-119-302000-
DALLAS/FORT WORTH METROPLEX

CITY           SKY/WX    TMP DP  RH WIND       PRES   REMARKS
DFW AIRPORT    MOSUNNY   96  67  38 SE8       29.96F HX 100
DALLAS LOVE    MOSUNNY   96  67  38 SW8       29.96F HX 100
FTW MEACHAM    SUNNY     98  67  36 S8        29.96F HX 102
DAL-EXECUTIVE  MOSUNNY   93  67  42 CALM      29.97F HX  96
FTW-ALLIANCE   SUNNY     97  66  36 S12       29.96F HAZE    HX 100
FTW-NAS-JRB    MOSUNNY   98  67  36 SE9       29.97F HX 102
FTW-SPINKS     MOSUNNY   97  66  36 SE5       29.99F HX 100
ARLINGTON      MOSUNNY   96  66  37 MISG      29.97F HX  99
GRAND PRAIRIE  SUNNY     93  64  38 SE3       29.99F HX  95
ADDISON        MOSUNNY   93  68  43 CALM      29.98F HX  97
MESQUITE       MOSUNNY   95  66  38 S8        29.98F HX  98
LANCASTER      SUNNY     96  65  35 SW3       29.99F HX  98
$$

TXZ091>094-102>105-117-120-121-131>134-302000-
NORTH CENTRAL TEXAS

CITY           SKY/WX    TMP DP  RH WIND       PRES   REMARKS
SHRMAN/DENISON MOSUNNY   96  69  40 W8        29.97F HX 102
BOWIE          SUNNY     96  66  36 S9        29.98F HX  99
BRIDGEPORT     MOSUNNY   96  68  40 S3        29.99F HX 100
DECATUR        SUNNY     93  64  38 SW3       29.99F HX  95
DENTON         MOSUNNY   93  70  46 CALM      29.96F HX  99
MCKINNEY       MOSUNNY   95  70  44 MISG      29.97F HX 101
GREENVILLE     MOSUNNY   95  66  38 SW6G16    29.98F HX  98
ROCKWALL       SUNNY     95  71  44 SW9       29.97F HX 102
WAXAHACHIE     SUNNY     94  68  41 S6        30.00F HX  98
CLEBURNE       SUNNY     95  68  41 SE8       30.00F HX  99
GRANBURY       MOSUNNY   98  64  32 S6        29.99F HX 100
$$

TXZ083>090-098>101-113>116-127>130-139>142-154-155-302000-
WESTERN NORTH TEXAS

CITY           SKY/WX    TMP DP  RH WIND       PRES   REMARKS
WICHITA FALLS  SUNNY     98  66  34 SW10G18   29.93F HX 101
WF-KICKAPOO    MOSUNNY   99  61  28 S13G20    29.95F HX 100
VERNON         MOSUNNY   98  56  24 SW10      29.95F HX  96
ABILENE        SUNNY     93  65  39 SE12      30.02F HX  95
ABILENE-DYESS  MOSUNNY   94  66  40 SE12G17   29.99F HX  97
CISCO          MOSUNNY   93  64  38 S8        30.03F HAZE    HX  95
GRAHAM         SUNNY     98  66  35 CALM      29.96F HX 101
MINERAL WELLS  SUNNY     95  69  42 SW8       29.97F HX 100
STEPHENVILLE   MOSUNNY   93  64  38 SW5       30.04F HX  94
COMANCHE       MOSUNNY   95  64  35 SW9       30.02F HX  97
BROWNWOOD      LGT RAIN  95  63  34 S10G18    30.01F HX  96
COLEMAN        MOSUNNY   94  62  34 SW7       30.02F HX  95
$$

TXZ143>147-156>162-174-175-302000-
CENTRAL TEXAS

CITY           SKY/WX    TMP DP  RH WIND       PRES   REMARKS
WACO           SUNNY     96  66  37 SE13      29.99F HX  99
WACO-MCGREGOR  MOSUNNY   95  69  42 S7        29.99F HX 100
HILLSBORO      MOSUNNY   94  67  40 SE7       29.99F HX  97
CORSICANA      SUNNY     95  68  41 VRB6      30.01F HX  99
MEXIA          SUNNY     95  70  44 SW12G18   30.00F HX 100
HEARNE         PTSUNNY   94  69  44 CALM      30.01F HX 100
CAMERON        SUNNY     95  68  40 S8G16     30.00F HX 100
TEMPLE         MOSUNNY   96  70  42 S16       30.00F HX 102
KILLEEN        MOSUNNY   93  65  38 SE13      30.00F HX  95
KILLEEN-SKYLRK MOSUNNY   94  70  45 SW10      30.00F HX 100
FORT HOOD      MOSUNNY   94  68  42 VRB7      29.98F HX  98
HAMILTON       MOSUNNY   96  64  34 S8        30.03F HX  97
LAMPASAS       MOSUNNY   96  70  42 S6        30.01F HX 102
$$

TXZ095>097-106>112-122>126-135>138-148>153-164>167-302000-
EAST TEXAS

CITY           SKY/WX    TMP DP  RH WIND       PRES   REMARKS
PARIS          PTSUNNY   91  64  40 CALM      29.98F THUNDER HX  93
SULPHUR SPRNGS SUNNY     95  66  37 S13       29.99F HX  98
MOUNT PLEASANT SUNNY     96  65  36 W10       30.00F HX  98
GILMER         SUNNY     92  70  47 CALM      30.00F HX  97
MINEOLA        SUNNY     95  68  41 S5        30.00F HX  99
TYLER          SUNNY     96  69  41 SW10      30.00F HX 102
LONGVIEW       MOSUNNY   94  71  47 SW6       29.99F HX 101
MARSHALL       MOSUNNY   90  71  53 S8        30.02F HX  96
ATHENS         MOSUNNY   91  70  49 S5        29.99F HX  97
PALESTINE      MOSUNNY   94  71  47 SW6       30.02F HX 100
JACKSONVILLE   SUNNY     94  68  43 W7        30.04F HX  98
HENDERSON      SUNNY     92  70  48 CALM      30.02F HX  97
CENTER         PTCLDY    93  75  54 CALM      30.02F HX 104
NACOGDOCHES    MOSUNNY   93  72  49 SW8       30.00F HX 100
LUFKIN         SUNNY     93  73  52 W7        30.01F HX 102
$$

SUPPLEMENTAL OBSERVATIONS (CENTRAL)

CITY           SKY/WX    TMP DP  RH WIND       PRES   REMARKS
$$

SUPPLEMENTAL OBSERVATIONS (WEST)

CITY           SKY/WX    TMP DP  RH WIND       PRES   REMARKS
$$

SUPPLEMENTAL OBSERVATIONS (EAST)

CITY           SKY/WX    TMP DP  RH WIND       PRES   REMARKS
$$

SUPPLEMENTAL OBSERVATIONS ARE A COLLECTION OF AUTOMATED INSTRUMENTS
THAT ARE MAINTAINED BY A VARIETY OF FEDERAL AND STATE AGENCIES.
CERTAIN ELEMENTS...SUCH AS HUMIDITY VALUES AND SUSTAINED WIND
SPEEDS...MAY BE APPROXIMATED.




USA.gov is the U.S. government's official web portal to all federal, state and local government web resources and services.